Location: Waning Moon II Observatory
(30.3730°N, 89.7620°W)
Time: 04:13:15
(UTC-05:00)

Meteor 1-21 - Visible Passes

Search period start: 02 September 2014 00:00
Search period end: 12 September 2014 00:00
Orbit: 843 x 890 km, 81.2° (Epoch: 01 September)

Date Brightness Start Highest point End Pass type
(mag) Time Alt. Az. Time Alt. Az. Time Alt. Az.
02 Sep 4.4 20:46:13 10° NNW 20:51:56 72° W 20:57:33 10° S visible
03 Sep 4.5 20:39:02 10° NNW 20:44:44 71° W 20:50:21 10° S visible
04 Sep 4.5 20:31:51 10° NNW 20:37:33 70° W 20:43:09 10° S visible
05 Sep 4.6 20:24:40 10° NNW 20:30:21 69° W 20:35:56 10° S visible
06 Sep 4.6 20:17:29 10° NNW 20:23:10 68° W 20:28:44 10° S visible
07 Sep 4.6 20:10:19 10° NNW 20:15:58 67° W 20:21:32 10° S visible
08 Sep 4.7 20:03:08 10° NNW 20:08:46 66° W 20:14:20 10° S visible
09 Sep 4.7 19:55:57 10° NNW 20:01:35 65° W 20:07:07 10° S visible
10 Sep 4.8 19:48:46 10° NNW 19:54:23 64° W 19:59:55 10° S visible
11 Sep 4.8 19:41:35 10° NNW 19:47:12 63° W 19:52:43 10° S visible
